Terug naar catalogus

STARLINK-36926

ActiefCommunicatieVLEO
NORAD 67999·PAYLOAD·🇺🇸 United States

Gelanceerd Feb 27, 2026 vanaf Vandenberg Space Force Base

Loading…

Volgende Passages (komende 24 uur)

TLE

VersSource: CelesTrak SupGP

Epoch: Sep 15, 2026, 03:30 UTC

1 67999C 26039P   26258.14631944 -.00029209  00000+0 -10577-2 0  2588
2 67999  43.0018  58.5850 0001453 269.4390  64.6577 15.27600540    11

Volg STARLINK-36926 in realtime met AllMySat

Download on the App Store